This is the latest recevied weather packets stored in our database for station/object WX5RP. If no packets are shown the sender has not sent any weather packets the latest 10 day(s).
| Time | Temp. | Humidity | Pressure | Rain* | Wind** | Luminosity | Snow |
|---|---|---|---|---|---|---|---|
| 1788069616 | 7.22° C | 59% | 1020.3 hPa | 0 mm | - | 0 W/m² | - |
| 1788069017 | 7.22° C | 59% | 1020.3 hPa | 0 mm | - | 0 W/m² | - |
| 1788068417 | 8.33° C | 57% | 1020.3 hPa | 0 mm | - | 0 W/m² | - |
| 1788067816 | 8.89° C | 55% | 1020.3 hPa | 0 mm | - | 0 W/m² | - |
| 1788067216 | 9.44° C | 54% | 1020 hPa | 0 mm | - | 0 W/m² | - |
| 1788066616 | 10° C | 52% | 1020.2 hPa | 0 mm | - | 0 W/m² | - |
| 1788066016 | 10.56° C | 51% | 1020.2 hPa | 0 mm | - | 0 W/m² | - |
| 1788065416 | 11.11° C | 50% | 1020.4 hPa | 0 mm | - | 0 W/m² | - |
| 1788064816 | 11.11° C | 49% | 1019.5 hPa | 0 mm | - | 0 W/m² | - |
| 1788064216 | 11.67° C | 47% | 1019.8 hPa | 0 mm | - | 0 W/m² | - |
| 1788063616 | 12.22° C | 46% | 1019.3 hPa | 0 mm | - | 0 W/m² | - |
| 1788063016 | 12.22° C | 44% | 1019.9 hPa | 0 mm | - | 0 W/m² | - |
| 1788062416 | 12.22° C | 44% | 1019.9 hPa | 0 mm | - | 0 W/m² | - |
| 1788061816 | 12.22° C | 44% | 1019.4 hPa | 0 mm | - | 0 W/m² | - |
| 1788061216 | 12.78° C | 44% | 1019.3 hPa | 0 mm | - | 0 W/m² | - |
| 1788060616 | 12.78° C | 44% | 1019.3 hPa | 0 mm | - | 0 W/m² | - |
| 1788060016 | 13.33° C | 42% | 1018.6 hPa | 0 mm | - | 0 W/m² | - |
| 1788059416 | 13.89° C | 41% | 1018.7 hPa | 0 mm | - | 0 W/m² | - |
| 1788058816 | 14.44° C | 40% | 1018.7 hPa | 0 mm | - | 0 W/m² | - |
| 1788058216 | 14.44° C | 40% | 1017.8 hPa | 0 mm | - | 0 W/m² | - |
| 1788057616 | 15° C | 38% | 1017.6 hPa | 0 mm | - | 7 W/m² | - |
| 1788057016 | 15.56° C | 36% | 1017.6 hPa | 0 mm | - | 12 W/m² | - |
| 1788056415 | 16.11° C | 35% | 1017 hPa | 0 mm | - | 17 W/m² | - |
| 1788055815 | 16.67° C | 35% | 1017.4 hPa | 0 mm | - | 21 W/m² | - |
| 1788055216 | 17.78° C | 35% | 1017.7 hPa | 0 mm | - | 24 W/m² | - |
* Rain latest hour (hover to see other rain measurements)
** Current wind speed in m/s (hover to see current wind gust speed)